Location: Unspecified
(49.2170°N, 0.0000°E)
Time: 15:12:26
(UTC+00:00)

Tiros 1 despin weight - Pass Details

Date: 24 January 2021
Orbit: 593 x 642 km, 48.2° (Epoch: 07 March)

Event Time Altitude Azimuth Distance (km) Brightness Sun altitude
Rises 13:32:13 0° 203° (SSW) 2,889 ? 19.4°
Reaches altitude 10° 13:35:07 10° 184° (S) 1,977 ? 19.3°
Maximum altitude 13:38:12 18° 142° (SE) 1,511 ? 19.1°
Drops below altitude 10° 13:41:15 10° 99° (E) 1,962 ? 18.9°
Sets 13:44:07 0° 80° (E) 2,860 ? 18.7°
